Weather History for Columbia Airport, CA

Change the Weather History Date:

Saturday, April 12, 2014

  Actual Average (KMOD) Record (KMOD)
Temperature  
Mean Temperature 58 °F -  
Max Temperature 71 °F 74 °F 92 °F (2008)
Min Temperature 44 °F 49 °F 35 °F (1945)
Degree Days  
Heating Degree Days 8 5  
Month to date heating degree days 67  
Since 1 July heating degree days 2072  
Cooling Degree Days 0 1  
Month to date cooling degree days 8  
Year to date cooling degree days 13  
Growing Degree Days 8 (Base 50)    
Moisture  
Dew Point 47 °F    
Average Humidity 70    
Maximum Humidity 94    
Minimum Humidity 35    
Precipitation  
Precipitation 0.00 in 0.03 in 0.26 in (2012)
Month to date precipitation 0.45  
Year to date precipitation 7.48  
Since 1 July precipitation 11.84  
Snow  
Snow 0.00 in - - ()
Month to date snowfall  
Since 1 July snowfall  
Snow Depth -    
Sea Level Pressure  
Sea Level Pressure 29.86 in    
Wind  
Wind Speed 3 mph (SW)    
Max Wind Speed 8 mph    
Max Gust Speed -    
Visibility 10 miles    
Events      
T = Trace of Precipitation, MM = Missing Value Source: NWS Daily Summary

Daily Weather History Graph

Daily Weather History Graph

Search for Another Location

Airport:

Trip Planner

Search our weather history database for the weather conditions in past years. The results will help you decide how hot, cold, wet, or windy it might be!

Date:

Astronomy

Apr. 12, 2014 Rise Set
Actual Time 6:30 AM PDT 7:35 PM PDT
Civil Twilight 6:03 AM PDT 8:02 PM PDT
Nautical Twilight 5:31 AM PDT 8:34 PM PDT
Astronomical Twilight 4:57 AM PDT 9:07 PM PDT
Moon 5:20 PM PDT (4/12) 4:57 AM PDT (4/12)
Length of Visible Light 13h 58m
Length of Day
13h 04m
Waxing Gibbous, 93% of the Moon is Illuminated
Apr 12
Waxing Gibbous
Apr 15
Full
Apr 22
Last Quarter
Apr 28
New
May 6
First Quarter

Hourly Weather History & Observations

Time (PDT) Temp. Windchill Dew Point Humidity Pressure Visibility Wind Dir Wind Speed Gust Speed Precip Events Conditions
12:15 AM 51.8 °F - 46.4 °F 82% 29.86 in 10.0 mi NE 4.6 mph - N/A   Clear
12:35 AM 50.0 °F - 46.4 °F 87% 29.86 in 10.0 mi North 3.5 mph - N/A   Clear
12:55 AM 50.0 °F - 46.4 °F 87% 29.86 in 10.0 mi Calm Calm - N/A   Clear
1:15 AM 50.0 °F - 46.4 °F 87% 29.86 in 10.0 mi Calm Calm - N/A   Clear
1:35 AM 50.0 °F - 46.4 °F 87% 29.85 in 10.0 mi Calm Calm - N/A   Clear
1:55 AM 48.2 °F - 44.6 °F 87% 29.85 in 10.0 mi NE 3.5 mph - N/A   Clear
2:15 AM 48.2 °F - 44.6 °F 87% 29.85 in 10.0 mi Calm Calm - N/A   Clear
2:35 AM 48.2 °F - 44.6 °F 87% 29.85 in 10.0 mi Calm Calm - N/A   Partly Cloudy
2:55 AM 48.2 °F - 44.6 °F 87% 29.84 in 10.0 mi NE 3.5 mph - N/A   Partly Cloudy
3:15 AM 46.4 °F 45.2 °F 44.6 °F 93% 29.84 in 10.0 mi NE 3.5 mph - N/A   Partly Cloudy
3:35 AM 46.4 °F 45.2 °F 44.6 °F 93% 29.83 in 10.0 mi North 3.5 mph - N/A   Clear
3:55 AM 46.4 °F - 44.6 °F 93% 29.83 in 10.0 mi Calm Calm - N/A   Clear
4:15 AM 46.4 °F - 42.8 °F 87% 29.83 in 10.0 mi Calm Calm - N/A   Partly Cloudy
4:35 AM 46.4 °F - 42.8 °F 87% 29.83 in 10.0 mi Calm Calm - N/A   Partly Cloudy
4:55 AM 46.4 °F 45.2 °F 42.8 °F 87% 29.82 in 10.0 mi ENE 3.5 mph - N/A   Clear
5:15 AM 44.6 °F - 42.8 °F 93% 29.82 in 10.0 mi Calm Calm - N/A   Clear
5:35 AM 44.6 °F - 41.0 °F 87% 29.82 in 10.0 mi Calm Calm - N/A   Clear
5:55 AM 44.6 °F 43.1 °F 42.8 °F 93% 29.82 in 10.0 mi ENE 3.5 mph - N/A   Partly Cloudy
6:15 AM 44.6 °F - 42.8 °F 93% 29.83 in 10.0 mi Calm Calm - N/A   Clear
6:35 AM 44.6 °F - 41.0 °F 87% 29.84 in 10.0 mi Calm Calm - N/A   Clear
6:55 AM 44.6 °F - 42.8 °F 93% 29.84 in 10.0 mi Calm Calm - N/A   Clear
7:15 AM 48.2 °F - 44.6 °F 87% 29.84 in 10.0 mi Calm Calm - N/A   Clear
7:35 AM 51.8 °F - 46.4 °F 82% 29.85 in 10.0 mi Calm Calm - N/A   Clear
7:55 AM 55.4 °F - 44.6 °F 67% 29.85 in 10.0 mi Calm Calm - N/A   Clear
8:15 AM 59.0 °F - 46.4 °F 63% 29.86 in 10.0 mi Calm Calm - N/A   Clear
8:35 AM 62.6 °F - 46.4 °F 55% 29.86 in 10.0 mi Calm Calm - N/A   Clear
8:55 AM 62.6 °F - 44.6 °F 52% 29.86 in 10.0 mi Calm Calm - N/A   Clear
9:15 AM 64.4 °F - 46.4 °F 52% 29.86 in 10.0 mi Calm Calm - N/A   Clear
9:35 AM 64.4 °F - 46.4 °F 52% 29.87 in 10.0 mi SSW 4.6 mph - N/A   Clear
9:55 AM 64.4 °F - 48.2 °F 56% 29.87 in 10.0 mi SSW 4.6 mph - N/A   Clear
10:15 AM 64.4 °F - 48.2 °F 56% 29.87 in 10.0 mi SSW 5.8 mph - N/A   Clear
10:35 AM 66.2 °F - 50.0 °F 56% 29.87 in 10.0 mi SSW 6.9 mph - N/A   Clear
10:55 AM 64.4 °F - 50.0 °F 59% 29.88 in 10.0 mi West 8.1 mph - N/A   Clear
11:15 AM 66.2 °F - 50.0 °F 56% 29.88 in 10.0 mi South 5.8 mph - N/A   Clear
11:35 AM 66.2 °F - 48.2 °F 52% 29.88 in 10.0 mi South 4.6 mph - N/A   Clear
11:55 AM 66.2 °F - 48.2 °F 52% 29.87 in 10.0 mi SSW 3.5 mph - N/A   Clear
12:15 PM 66.2 °F - 48.2 °F 52% 29.87 in 10.0 mi South 4.6 mph - N/A   Clear
12:35 PM 68.0 °F - 50.0 °F 52% 29.87 in 10.0 mi South 5.8 mph - N/A   Clear
12:55 PM 69.8 °F - 50.0 °F 49% 29.87 in 10.0 mi West 6.9 mph - N/A   Clear
1:15 PM 68.0 °F - 51.8 °F 56% 29.87 in 10.0 mi WSW 4.6 mph - N/A   Clear
1:35 PM 69.8 °F - 50.0 °F 49% 29.87 in 10.0 mi West 4.6 mph - N/A   Clear
1:55 PM 71.6 °F - 51.8 °F 50% 29.87 in 10.0 mi WSW 6.9 mph - N/A   Clear
2:15 PM 69.8 °F - 53.6 °F 56% 29.86 in 10.0 mi WSW 8.1 mph - N/A   Clear
2:35 PM 71.6 °F - 53.6 °F 53% 29.86 in 10.0 mi SW 5.8 mph - N/A   Clear
2:55 PM 71.6 °F - 55.4 °F 57% 29.86 in 10.0 mi WSW 5.8 mph - N/A   Clear
3:15 PM 71.6 °F - 53.6 °F 53% 29.86 in 10.0 mi West 8.1 mph - N/A   Clear
3:35 PM 71.6 °F - 48.2 °F 43% 29.85 in 10.0 mi West 5.8 mph - N/A   Clear
3:55 PM 71.6 °F - 44.6 °F 38% 29.85 in 10.0 mi WNW 6.9 mph - N/A   Clear
4:15 PM 71.6 °F - 46.4 °F 41% 29.84 in 10.0 mi WSW 6.9 mph - N/A   Clear
4:35 PM 71.6 °F - 44.6 °F 38% 29.84 in 10.0 mi South 5.8 mph - N/A   Clear
4:55 PM 71.6 °F - 42.8 °F 35% 29.84 in 10.0 mi South 4.6 mph - N/A   Clear
5:15 PM 71.6 °F - 44.6 °F 38% 29.84 in 10.0 mi SSW 4.6 mph - N/A   Clear
5:35 PM 69.8 °F - 44.6 °F 40% 29.85 in 10.0 mi South 5.8 mph - N/A   Clear
5:55 PM 68.0 °F - 44.6 °F 43% 29.85 in 10.0 mi SSW 4.6 mph - N/A   Clear
6:15 PM 68.0 °F - 46.4 °F 46% 29.85 in 10.0 mi SSW 3.5 mph - N/A   Clear
6:35 PM 66.2 °F - 48.2 °F 52% 29.85 in 10.0 mi South 3.5 mph - N/A   Clear
6:55 PM 66.2 °F - 50.0 °F 56% 29.86 in 10.0 mi South 3.5 mph - N/A   Clear
7:15 PM 62.6 °F - 50.0 °F 63% 29.86 in 10.0 mi Calm Calm - N/A   Clear
7:35 PM 59.0 °F - 50.0 °F 72% 29.86 in 10.0 mi Calm Calm - N/A   Clear
7:55 PM 59.0 °F - 50.0 °F 72% 29.87 in 10.0 mi Calm Calm - N/A   Clear
8:15 PM 57.2 °F - 50.0 °F 77% 29.88 in 10.0 mi Calm Calm - N/A   Clear
8:35 PM 55.4 °F - 50.0 °F 82% 29.88 in 10.0 mi Calm Calm - N/A   Clear
8:55 PM 55.4 °F - 48.2 °F 77% 29.89 in 10.0 mi ENE 3.5 mph - N/A   Clear
9:15 PM 53.6 °F - 48.2 °F 82% 29.90 in 10.0 mi NE 3.5 mph - N/A   Clear
9:35 PM 53.6 °F - 48.2 °F 82% 29.90 in 10.0 mi Calm Calm - N/A   Clear
9:55 PM 50.0 °F - 48.2 °F 94% 29.90 in 10.0 mi Calm Calm - N/A   Clear
10:15 PM 50.0 °F - 48.2 °F 94% 29.90 in 10.0 mi Calm Calm - N/A   Clear
10:35 PM 50.0 °F - 46.4 °F 87% 29.90 in 10.0 mi Calm Calm - N/A   Clear
10:55 PM 48.2 °F - 46.4 °F 93% 29.91 in 10.0 mi Calm Calm - N/A   Clear
11:15 PM 50.0 °F - 46.4 °F 87% 29.91 in 10.0 mi Calm Calm - N/A   Clear
11:35 PM 48.2 °F - 46.4 °F 93% 29.91 in 10.0 mi Calm Calm - N/A   Clear
11:55 PM 48.2 °F - 46.4 °F 93% 29.92 in 10.0 mi Calm Calm - N/A   Clear